Tegucigalpa, Honduras

3:27 PM CST on October 21, 2017 (GMT -0600)
Toncontin International

Weather History for MHTG - March, 2013

Change the Weather History Date:

Wednesday, March 27, 2013

  Actual Average Record
Temperature  
Mean Temperature 69 °F -  
Max Temperature 73 °F 85 °F 89 °F (2005)
Min Temperature 65 °F 62 °F 53 °F (2001)
Cooling Degree Days 4    
Growing Degree Days 19 (Base 50)    
Moisture  
Dew Point 65 °F    
Average Humidity 92    
Maximum Humidity 100    
Minimum Humidity 80    
Precipitation  
Precipitation 0.04 in 0.05 in - ()
Sea Level Pressure  
Sea Level Pressure 30.11 in    
Wind  
Wind Speed 11 mph ()    
Max Wind Speed 31 mph    
Max Gust Speed 31 mph    
Visibility 5.2 miles    
Events Rain    
Averages and records for this station are not official NWS values.
T = Trace of Precipitation, MM = Missing Value Source: Averaged Metar Reports

Daily Weather History Graph

Daily Weather History Graph

Search for Another Location

Airport or City:

Trip Planner

Search our weather history database for the weather conditions in past years. The results will help you decide how hot, cold, wet, or windy it might be!

Date:

Astronomy

Mar. 27, 2013 Rise Set
Actual Time 5:47 AM CST 6:00 PM CST
Civil Twilight 5:26 AM CST 6:21 PM CST
Nautical Twilight 5:01 AM CST 6:46 PM CST
Astronomical Twilight 4:36 AM CST 7:11 PM CST
Moon 6:29 PM CST (3/27) 5:46 AM CST (3/27)
Length of Visible Light 12h 55m
Length of Day
12h 12m
Full, 100% of the Moon is Illuminated
Mar 27
Full
Apr 2
Last Quarter
Apr 10
New
Apr 18
First Quarter
Apr 25
Full

Hourly Weather History & Observations

Time (CST) Temp. Dew Point Humidity Pressure Visibility Wind Dir Wind Speed Gust Speed Precip Events Conditions
12:00 AM 67 °F 66 °F 96% 30.01 in 6 mi North 11.5 mph - -   Haze
12:00 AM 68.0 °F 66.2 °F 94% 30.15 in 6.2 mi North 11.5 mph - N/A   Scattered Clouds
1:00 AM 68.0 °F 66.2 °F 94% 30.15 in 6.2 mi North 11.5 mph - N/A   Scattered Clouds
2:00 AM 68.0 °F 66.2 °F 94% 30.09 in 6.2 mi North 9.2 mph - N/A   Mostly Cloudy
3:00 AM 67 °F 65 °F 93% 29.95 in 6 mi North 6.9 mph - -   Mist
3:00 AM 68.0 °F 66.2 °F 94% 30.09 in 6.2 mi North 6.9 mph - N/A   Mostly Cloudy
4:00 AM 68.0 °F 66.2 °F 94% 30.09 in 6.2 mi North 6.9 mph - N/A   Mostly Cloudy
5:00 AM 66.2 °F 66.2 °F 100% 30.12 in 6.2 mi North 9.2 mph - N/A   Mostly Cloudy
6:00 AM 66 °F 66 °F 99% 29.99 in 2 mi North 13.8 mph - -  
6:00 AM 66.2 °F 66.2 °F 100% 30.12 in 2.5 mi North 13.8 mph - N/A   Mostly Cloudy
7:00 AM 66.2 °F 66.2 °F 100% 30.15 in 4.3 mi North 13.8 mph - N/A   Light Drizzle
8:00 AM 68.0 °F 66.2 °F 94% 30.15 in 4.3 mi North 16.1 mph - N/A   Mostly Cloudy
9:00 AM 67 °F 67 °F 100% 30.03 in 2 mi North 12.7 mph - - Rain Light Drizzle
9:00 AM 68.0 °F 68.0 °F 100% 30.18 in 6.2 mi North 12.7 mph - N/A   Light Drizzle
10:00 AM 69.8 °F 66.2 °F 88% 30.21 in 5.0 mi North 18.4 mph - N/A   Mostly Cloudy
11:00 AM 71.6 °F 68.0 °F 88% 30.18 in 5.0 mi North 18.4 mph - N/A   Mostly Cloudy
12:00 PM 71 °F 66 °F 80% 30.01 in 5 mi North 31.1 mph - -   Mostly Cloudy
12:00 PM 69.8 °F 66.2 °F 88% 30.18 in 5.0 mi North 17.3 mph 31.1 mph N/A   Mostly Cloudy
1:00 PM 71.6 °F 66.2 °F 83% 30.15 in 3.7 mi North 17.3 mph 28.8 mph N/A   Mostly Cloudy
2:00 PM 69.8 °F 66.2 °F 88% 30.12 in 6.2 mi North 18.4 mph - N/A   Mostly Cloudy
3:00 PM 67 °F 66 °F 95% 29.97 in 5 mi North 11.5 mph - -   Mostly Cloudy
3:00 PM 66.2 °F 66.2 °F 100% 30.12 in 5.0 mi North 11.5 mph - N/A   Mostly Cloudy
4:00 PM 68.0 °F 66.2 °F 94% 30.12 in 5.0 mi North 15.0 mph - N/A   Light Drizzle
5:00 PM 68.0 °F 64.4 °F 88% 30.12 in 5.0 mi North 11.5 mph - N/A   Mostly Cloudy
6:00 PM 67 °F 64 °F 88% 29.99 in 5 mi North 12.7 mph - -   Mostly Cloudy
6:00 PM 68.0 °F 64.4 °F 88% 30.12 in 5.0 mi North 12.7 mph - N/A   Mostly Cloudy
7:00 PM 66.2 °F 62.6 °F 88% 30.15 in 6.2 mi North 13.8 mph - N/A   Scattered Clouds
8:00 PM 66.2 °F 62.6 °F 88% 30.18 in 6.2 mi North 15.0 mph - N/A   Mostly Cloudy
9:00 PM 66 °F 63 °F 87% 30.04 in 6 mi North 11.5 mph - -   Haze
9:00 PM 66.2 °F 62.6 °F 88% 30.18 in 6.2 mi North 11.5 mph - N/A   Mostly Cloudy
10:00 PM 66.2 °F 62.6 °F 88% 30.18 in 6.2 mi NNW 13.8 mph - N/A   Mostly Cloudy
11:00 PM 66.2 °F 62.6 °F 88% 30.18 in 6.2 mi North 11.5 mph - N/A   Mostly Cloudy